GFSNW_sfc_thetae_021.txt.gz
Theta_e
308 307 308 309 309 310 307 301 294 308 311 295 296 292 294 297 296 299 297 295 293 291 291 290 290 290 293 295 294 290 291 288 279 284 289 290 289 287 287 279 277 278 280 280
305 305 305 306 308 305 303 297 297 308 307 289 290 295 295 297 294 294 294 293 295 295 291 288 290 292 294 295 294 292 292 284 274 277 283 288 285 286 286 287 284 280 277 277
304 303 303 305 306 302 301 296 290 297 300 298 292 292 292 291 296 293 295 293 294 291 289 291 288 288 293 293 293 296 294 286 278 275 276 283 279 281 282 283 274 274 277 279
302 302 302 301 300 301 300 295 290 293 287 292 293 292 291 289 289 294 294 291 291 290 287 287 287 289 289 291 294 291 289 277 281 282 283 282 281 280 281 279 280 276 278 278
303 302 302 301 299 299 295 289 288 290 289 292 292 291 288 289 289 291 289 288 291 291 288 286 281 285 285 285 287 286 287 275 279 273 281 280 278 279 279 279 279 278 278 277
303 302 302 301 300 298 290 291 291 289 287 286 288 288 289 289 291 288 289 291 289 286 285 286 286 286 285 285 283 281 280 275 268 267 277 274 267 275 277 278 279 277 274 277
303 303 302 300 301 297 291 290 289 285 281 285 286 286 289 288 288 287 286 287 286 285 287 285 283 281 281 281 282 284 279 273 268 263 264 258 274 277 278 277 277 275 275 272
302 302 302 302 301 299 291 292 288 283 277 284 283 284 283 283 286 284 283 283 285 286 282 277 270 269 272 275 278 279 282 277 265 264 258 268 274 276 275 274 272 275 274 275
303 303 302 302 302 301 294 291 292 285 280 279 284 282 283 279 278 279 280 282 283 283 280 273 264 263 268 266 271 277 278 279 272 258 261 259 270 277 279 277 268 272 271 273
302 302 302 302 302 302 295 291 291 286 278 283 282 280 282 284 281 277 277 277 278 281 275 262 263 264 273 266 265 264 263 262 269 269 262 265 273 275 278 264 268 270 273 274
302 302 302 302 302 302 297 291 292 287 278 283 284 285 282 281 280 274 274 274 275 274 268 267 272 266 271 268 270 270 268 264 261 259 255 261 276 274 271 274 277 277 277 277
302 302 302 302 302 302 300 292 293 292 282 281 287 288 288 286 285 279 273 274 270 277 270 267 268 262 264 265 262 273 267 271 265 269 267 276 277 276 279 279 276 278 277 278
301 302 302 302 302 301 300 294 293 292 285 285 284 280 288 290 288 287 276 274 280 280 280 272 270 265 272 262 264 268 273 274 271 270 274 275 277 278 279 279 279 279 279 279
300 301 301 301 302 302 301 294 294 292 286 279 277 285 284 289 288 287 286 283 283 282 281 274 269 265 277 269 274 271 274 274 271 271 276 276 277 278 279 278 279 278 278 278
299 300 300 301 301 301 299 297 295 295 287 277 274 278 284 287 287 286 285 284 281 279 276 273 270 274 275 272 276 273 278 276 273 272 278 277 278 279 279 279 279 279 278 277
298 299 299 299 300 300 295 286 294 296 293 284 277 281 277 284 286 285 284 284 282 282 280 278 277 279 278 272 267 277 279 280 280 277 280 280 280 280 279 278 278 278 278 277
297 297 298 298 299 297 287 285 289 297 294 283 278 278 278 282 281 278 281 283 283 282 281 279 278 277 280 272 271 278 279 279 280 280 279 278 279 278 279 278 278 275 272 271
296 296 297 297 298 297 291 291 294 296 288 284 277 275 269 279 280 278 282 282 283 282 280 276 277 279 278 273 277 279 280 280 279 279 280 280 279 276 274 273 270 267 269 268
295 296 296 291 287 286 288 295 296 294 286 279 278 272 268 280 279 281 280 281 276 281 277 276 277 271 271 274 277 278 279 278 279 279 273 271 274 274 270 269 267 268 267 266
295 292 285 282 285 295 295 289 285 284 284 283 277 275 273 277 274 271 273 276 274 271 273 277 275 272 278 279 278 278 276 275 274 268 268 263 265 268 268 267 266 265 265 264
288 284 283 287 294 287 284 279 279 277 276 279 274 274 272 274 270 269 277 272 273 269 270 271 264 262 276 279 279 280 277 274 267 268 266 266 266 266 265 263 262 262 261 258
287 286 288 288 284 281 277 275 272 270 270 275 273 270 273 273 276 273 275 271 272 268 264 265 263 271 274 274 275 266 266 265 261 261 262 263 263 262 262 261 259 257 257 256
286 283 279 279 277 273 271 266 271 261 273 272 267 271 275 277 278 275 273 270 269 268 269 265 266 267 271 267 261 257 257 258 258 257 258 257 256 255 255 254 253 252 251 249
279 275 271 271 269 273 264 264 267 269 267 270 269 272 272 275 274 275 270 271 269 266 264 261 263 269 271 262 258 257 255 256 256 254 254 254 254 253 251 251 250 249 249 248
276 274 270 271 265 261 260 259 264 266 270 276 271 269 275 271 271 274 270 265 265 263 261 263 267 266 262 259 255 254 254 253 251 250 251 252 251 250 248 245 245 246 246 246
277 274 267 262 262 260 259 260 265 268 276 277 276 273 272 270 272 270 267 265 261 262 261 257 256 257 256 256 253 251 251 250 249 248 248 250 249 248 246 242 243 244 244 245
273 262 255 261 270 267 259 259 266 271 272 271 271 269 268 273 269 268 268 261 261 255 258 256 256 257 254 253 252 249 249 248 247 244 245 244 242 241 243 246 245 243 243 244

GFSNW_sfc_thetae_024.txt.gz
Theta_e
313 314 313 313 314 312 308 303 296 307 311 298 298 293 296 297 296 299 296 296 292 291 292 289 288 289 291 293 292 289 291 288 279 284 287 289 286 285 285 278 276 278 278 279
307 309 312 313 312 311 305 298 297 307 307 292 292 295 295 297 294 294 295 294 295 294 292 289 289 290 292 294 293 291 291 284 272 277 283 287 284 286 286 284 280 274 275 277
305 306 306 309 305 305 302 296 290 297 300 298 295 293 293 293 298 296 296 294 295 292 290 291 288 288 291 292 294 296 294 284 280 279 278 283 279 282 282 282 273 275 278 279
304 303 304 303 302 303 301 295 291 295 288 292 293 294 293 291 289 296 296 291 292 290 286 287 287 288 288 290 293 290 290 284 281 282 284 284 282 281 280 280 279 276 278 277
303 302 301 301 301 302 296 290 289 291 290 294 293 293 289 290 292 292 289 289 291 290 288 288 285 288 288 286 288 287 286 277 280 274 280 281 278 280 280 280 280 279 280 279
303 302 302 301 299 299 292 292 292 291 289 288 289 289 289 290 292 290 291 291 289 288 290 289 286 287 287 287 286 284 282 277 272 270 275 274 267 273 278 279 279 278 274 277
304 303 302 302 300 297 293 291 291 286 282 286 287 288 290 290 290 289 286 287 289 285 286 285 284 281 281 283 283 284 278 276 274 266 264 259 274 276 277 276 277 276 276 273
304 304 303 302 301 299 292 292 289 286 279 286 286 285 287 287 288 284 283 283 284 287 284 280 276 273 277 277 279 282 282 277 267 266 260 269 274 276 275 275 273 274 274 273
304 303 303 302 302 300 293 291 292 286 282 280 285 284 284 282 281 279 280 283 284 284 281 277 272 270 271 268 271 277 280 279 273 260 259 260 271 276 278 276 267 270 272 273
303 303 303 302 302 302 294 291 291 287 280 283 283 281 282 284 282 278 278 279 282 282 277 270 268 268 273 268 267 267 266 268 271 269 260 264 273 274 277 265 269 270 272 275
303 303 303 302 302 302 296 291 292 287 279 282 285 285 282 282 281 277 276 279 278 278 275 272 273 268 272 269 271 270 268 266 264 262 263 261 275 275 271 275 276 276 277 277
302 302 303 302 302 302 300 291 292 291 282 281 288 287 288 286 285 280 275 278 274 278 272 270 272 266 265 266 264 273 268 272 266 269 268 277 277 277 280 278 276 278 277 278
302 302 302 302 302 302 300 293 290 289 284 281 284 281 287 289 287 287 278 276 280 279 279 272 270 264 271 263 264 267 272 274 271 270 273 275 277 280 278 279 279 279 279 279
301 301 301 302 302 302 301 294 294 291 286 277 277 284 284 288 288 285 284 283 282 281 280 272 266 264 276 268 271 270 273 273 269 270 275 275 276 277 278 279 279 278 278 278
300 300 301 301 301 302 300 297 295 293 287 275 273 278 283 286 286 285 284 283 280 277 273 267 268 272 273 270 275 270 275 275 272 271 278 276 277 279 279 278 279 278 278 277
299 299 299 300 300 301 295 286 294 296 293 284 274 280 277 283 284 283 282 282 280 278 277 272 275 279 278 273 270 277 280 278 280 277 280 279 280 281 280 279 279 278 278 278
298 297 297 297 299 296 286 285 290 297 294 283 278 274 277 281 280 277 280 281 279 280 279 277 277 277 281 275 269 278 278 278 279 279 279 277 279 278 279 279 279 276 274 273
297 297 297 297 298 296 290 292 296 297 288 284 277 275 274 281 280 278 283 281 282 281 281 277 276 279 279 273 277 279 279 280 278 279 279 280 281 276 277 274 272 270 271 269
296 296 296 290 289 286 288 296 296 294 287 279 277 268 266 280 280 281 280 283 277 282 277 277 278 274 272 275 277 278 279 278 278 278 273 272 274 277 274 271 267 270 269 267
295 291 285 282 285 293 295 289 284 284 283 283 277 268 270 278 274 274 276 278 275 272 275 277 275 273 279 278 277 278 279 277 274 271 272 264 265 270 269 268 267 268 267 266
287 283 282 284 293 286 284 279 277 278 276 277 272 271 270 277 272 271 277 273 274 269 268 270 268 266 276 279 279 280 279 276 273 271 269 268 269 269 267 265 263 263 261 258
287 286 289 287 284 280 276 275 274 273 271 271 274 269 274 274 276 272 275 271 272 268 268 269 262 271 275 274 277 279 273 270 265 263 265 264 265 263 263 261 259 257 257 256
287 283 279 279 277 273 271 269 268 267 266 273 269 271 274 277 279 275 274 270 268 269 269 265 266 268 269 273 271 262 261 261 259 258 259 258 257 256 255 255 254 253 252 248
278 276 272 271 270 270 268 265 266 269 268 269 268 273 272 274 274 275 270 272 270 267 265 261 267 266 269 267 261 261 259 258 258 256 256 255 254 253 252 251 250 251 250 247
276 275 269 270 264 264 258 255 261 265 266 274 269 268 275 272 272 274 271 266 265 265 262 263 263 262 262 260 256 257 257 255 253 251 252 253 252 251 248 244 244 246 246 246
276 275 267 260 261 260 259 259 263 267 273 273 273 272 272 271 270 268 267 265 262 263 261 256 256 254 256 255 257 257 255 254 252 249 250 250 249 249 246 242 242 244 244 245
273 267 251 256 258 262 259 260 264 270 272 272 273 270 269 273 269 268 268 263 261 258 257 255 256 257 253 255 254 252 252 251 250 249 249 246 242 242 244 246 245 243 243 243

GFSNW_sfc_thetae_030.txt.gz
Theta_e
316 318 318 318 318 316 313 308 299 310 318 301 301 297 300 301 299 300 297 296 294 291 291 288 285 286 290 293 292 288 290 286 279 283 285 285 284 284 284 281 277 276 276 281
310 313 317 318 318 316 308 301 299 307 311 296 297 300 300 301 297 298 296 294 296 295 291 289 289 289 291 292 293 290 291 284 274 279 283 283 282 283 284 282 279 274 279 279
309 308 311 316 317 315 307 299 293 298 300 299 297 297 296 295 298 297 298 296 296 292 291 294 291 289 291 291 292 296 295 285 282 281 281 283 280 282 283 284 281 281 281 283
306 306 307 308 308 307 304 298 293 297 291 294 294 297 296 294 292 296 298 294 295 295 289 291 289 289 289 290 294 291 292 283 283 283 282 283 283 282 281 281 283 282 283 281
305 304 305 305 305 305 296 292 291 292 292 295 294 294 293 294 293 293 291 292 294 295 292 291 288 290 289 288 288 288 287 283 282 278 281 282 280 282 281 283 281 280 279 279
304 304 303 303 303 302 293 292 293 292 291 291 292 292 291 292 295 293 294 294 293 292 295 294 290 292 292 292 288 286 284 280 278 279 277 277 277 279 281 281 282 283 278 284
305 303 303 302 301 300 295 293 292 289 285 289 290 291 293 292 294 291 289 292 293 288 289 290 288 284 285 287 284 287 281 279 278 273 274 271 277 275 279 283 282 282 278 276
305 304 304 302 301 300 294 294 290 287 284 287 286 287 288 289 289 285 286 284 285 290 288 283 280 279 281 280 278 280 282 281 273 272 271 274 277 275 274 275 275 276 278 279
304 305 304 303 301 299 294 293 294 289 285 284 288 285 285 284 283 282 280 283 285 286 285 282 277 274 278 274 273 278 281 283 282 270 270 269 272 276 278 277 270 274 275 275
303 304 304 303 302 299 292 291 294 289 284 285 286 285 284 287 284 281 280 281 282 284 281 277 276 275 278 273 271 270 274 274 277 272 272 272 274 275 277 269 274 270 273 275
303 303 304 304 303 300 292 289 292 287 282 284 284 285 284 284 285 281 279 281 280 280 279 279 277 276 274 273 274 272 273 273 271 272 270 269 276 276 274 276 276 277 276 276
302 303 303 302 303 302 296 286 291 290 283 282 286 287 287 286 289 284 281 283 280 282 280 277 276 273 272 272 269 273 272 276 272 275 274 276 278 278 279 279 277 277 277 277
302 302 303 303 303 303 298 290 288 287 278 280 280 281 287 289 288 288 281 279 283 282 282 277 276 273 274 268 269 270 273 274 273 273 274 275 277 279 278 279 279 279 279 278
301 302 302 302 302 303 299 291 291 287 281 272 277 283 283 287 288 286 286 284 283 282 281 276 273 271 277 271 274 273 274 274 271 271 274 275 277 278 279 279 279 278 277 278
301 301 301 301 302 302 299 295 293 291 283 274 273 277 282 285 285 283 283 283 281 279 276 273 271 275 274 272 274 270 275 273 271 270 277 277 277 279 279 278 278 278 277 276
300 300 301 301 301 302 296 286 293 294 292 282 273 279 276 281 282 281 281 280 280 278 276 274 275 278 276 267 266 276 277 277 278 276 279 279 280 279 278 278 278 278 276 277
299 300 300 300 300 297 287 285 288 297 293 284 276 273 276 281 279 277 279 280 278 278 275 271 276 276 277 267 267 277 278 278 278 279 278 277 278 278 278 278 278 276 274 274
298 299 300 299 297 297 290 291 296 296 288 284 278 271 276 281 278 277 279 277 276 276 276 276 274 277 275 268 276 278 279 278 278 278 279 281 277 276 276 274 272 271 272 272
298 298 299 293 287 284 286 295 297 293 287 279 278 270 269 280 280 280 280 282 275 278 272 275 276 272 271 275 277 277 278 276 278 275 275 275 275 277 273 271 268 270 272 268
297 291 284 281 285 294 295 288 283 283 282 282 276 266 269 279 277 276 273 274 273 272 275 278 276 271 278 278 277 278 279 278 275 270 269 264 267 272 272 272 272 273 271 267
286 283 280 284 293 284 281 278 277 278 276 280 274 269 270 275 272 271 277 274 275 270 269 272 270 263 278 280 277 280 279 277 275 277 277 273 272 272 272 270 269 265 264 261
286 286 288 287 281 274 273 274 274 272 272 270 270 271 271 269 274 273 276 272 272 266 268 270 261 270 276 273 278 280 279 273 273 271 274 268 269 265 266 264 262 259 259 258
286 282 280 277 277 272 270 268 265 267 263 268 265 270 272 273 275 273 273 269 269 271 269 267 267 270 267 265 265 268 261 262 263 261 262 262 259 258 257 257 256 255 253 251
277 276 271 271 270 269 266 265 261 265 265 271 267 272 270 269 270 272 266 267 265 263 260 261 265 259 257 259 259 257 258 257 260 257 258 257 256 254 253 253 253 253 252 249
272 273 269 268 263 260 255 255 258 261 261 271 268 267 274 268 271 273 269 266 262 262 261 259 255 255 255 255 254 254 254 254 253 252 254 254 253 252 249 248 248 250 250 249
273 272 265 260 261 259 259 258 266 267 270 267 269 266 269 268 270 269 267 265 263 262 253 251 254 253 253 250 250 250 249 249 249 251 252 253 252 251 248 245 247 248 250 249
270 264 255 255 256 260 259 260 266 271 272 272 273 270 268 272 269 266 265 260 255 254 255 255 253 252 252 251 249 248 248 249 248 249 250 248 248 249 249 249 246 249 248 249

GFSNW_sfc_thetae_033.txt.gz
Theta_e
310 313 317 318 317 316 313 309 300 314 318 300 302 296 296 299 301 301 297 296 296 290 289 285 284 284 288 291 290 288 290 287 280 283 285 285 285 285 285 281 277 277 277 281
309 309 312 317 317 316 309 302 302 309 314 295 296 300 299 300 298 300 299 296 296 295 290 288 286 286 291 293 291 289 291 285 277 281 284 283 283 284 284 283 280 276 276 279
308 308 309 310 316 317 312 299 292 298 300 299 299 296 297 296 302 300 299 297 296 293 293 294 290 287 289 291 292 296 295 286 284 284 284 284 281 282 283 285 276 280 282 284
307 306 307 308 309 313 307 299 294 297 292 295 295 295 297 296 295 299 300 295 297 295 291 291 291 290 289 290 294 292 292 285 282 284 284 284 284 283 282 283 285 282 285 283
306 305 305 306 306 307 300 294 292 293 293 296 295 294 292 293 297 294 294 295 297 298 294 295 292 291 289 290 288 289 289 286 283 281 282 282 281 283 283 284 284 284 283 282
305 304 304 304 304 303 294 293 293 294 292 291 292 293 294 292 296 294 295 296 294 294 296 294 291 294 294 292 289 287 286 283 283 283 279 281 280 281 282 282 282 285 280 287
306 304 304 303 302 300 296 293 294 290 285 290 291 292 294 292 294 293 292 293 290 290 292 293 291 288 288 290 286 291 284 284 283 272 277 274 278 275 281 283 283 281 279 276
304 306 304 303 301 300 295 294 292 288 285 288 287 288 290 292 290 290 289 286 287 292 290 284 282 280 282 280 278 283 285 284 275 274 274 278 276 275 278 280 279 280 283 281
303 304 305 304 302 301 295 294 295 291 286 285 289 286 287 285 284 282 281 284 285 288 285 283 279 276 279 276 275 279 283 284 284 273 273 272 276 276 277 279 274 274 281 278
303 303 304 305 302 300 293 292 295 290 285 286 288 285 285 288 285 281 281 282 284 284 282 278 278 277 279 274 273 274 276 276 279 275 274 276 278 276 278 274 278 276 275 276
302 302 303 304 303 300 292 290 294 290 285 284 284 287 286 285 285 281 280 282 281 281 280 280 278 276 276 275 274 274 276 275 274 275 273 273 277 276 276 280 277 278 277 277
301 302 303 303 304 300 295 286 291 290 284 283 287 287 287 288 290 284 282 284 280 283 281 280 278 274 274 274 274 274 275 278 276 278 277 277 279 279 280 280 279 278 278 278
301 302 302 303 303 303 296 287 288 285 280 280 279 281 286 288 288 290 283 282 285 284 284 280 278 276 277 272 273 272 274 275 274 275 275 275 278 279 279 279 279 279 279 278
300 301 302 302 302 302 297 290 288 285 279 272 277 283 283 287 288 286 286 284 283 282 282 279 277 275 278 273 276 276 276 275 272 272 274 276 277 278 279 279 279 278 278 278
300 300 301 301 302 302 299 293 291 289 284 274 273 277 282 284 285 283 283 283 281 279 275 274 273 276 275 274 275 272 275 274 273 272 277 277 278 280 280 279 279 278 277 276
298 299 300 301 301 302 295 285 292 293 291 278 272 277 276 280 281 281 281 281 280 278 277 275 276 278 277 269 269 277 277 277 279 277 279 279 279 279 279 279 278 278 277 277
298 299 299 300 301 297 288 285 288 296 293 281 272 272 278 280 278 276 278 280 278 277 274 271 276 276 275 267 268 276 277 278 278 279 278 276 278 278 279 278 278 276 274 274
298 298 299 300 300 298 288 292 297 296 287 284 276 266 276 281 278 277 278 277 275 274 274 275 272 275 273 266 275 277 277 277 277 278 279 279 278 276 275 274 272 271 273 272
297 298 298 292 290 284 285 297 298 293 287 279 276 269 270 280 280 278 278 278 269 277 271 274 273 271 267 274 276 277 277 277 278 276 276 274 274 275 272 271 268 271 273 270
297 290 285 281 285 295 293 287 284 283 282 281 275 264 266 279 278 274 273 271 270 266 270 277 274 268 277 278 277 277 278 277 274 270 270 265 268 272 272 272 273 274 273 268
286 283 280 285 294 285 282 277 278 279 275 279 271 267 272 277 271 268 277 273 275 269 267 270 268 264 277 280 277 278 279 277 275 276 275 273 273 274 273 271 271 270 267 265
286 284 287 285 281 277 274 274 275 274 273 273 268 267 272 274 276 275 276 272 271 268 267 270 265 270 268 268 270 271 270 270 271 270 274 270 270 267 267 265 263 261 260 260
285 282 280 278 276 271 269 267 268 267 268 272 270 269 272 272 275 274 274 270 269 271 268 264 266 265 260 258 260 260 261 262 261 261 261 263 260 258 257 257 256 256 255 253
278 275 271 271 270 271 267 266 266 267 267 268 268 271 271 271 272 273 269 270 270 267 266 262 258 255 254 255 255 253 255 256 257 255 257 258 257 254 253 253 253 254 253 251
275 275 269 268 264 261 254 253 259 263 267 273 270 269 274 268 271 273 269 266 264 264 261 256 254 254 253 253 252 251 251 252 251 250 252 254 253 252 249 248 250 251 250 250
273 266 265 263 264 259 258 255 264 266 269 267 269 266 265 266 267 267 264 264 261 260 253 254 254 252 250 249 249 249 249 247 248 249 250 252 251 250 247 248 248 250 250 249
260 257 256 254 257 256 254 256 265 270 267 264 270 267 266 271 268 265 260 262 255 255 255 255 254 252 251 250 249 247 247 247 246 245 247 246 246 246 249 249 246 246 246 247

GFSNW_sfc_thetae_036.txt.gz
Theta_e
310 310 311 312 314 314 312 308 300 315 317 300 301 295 297 301 301 301 300 299 299 294 291 290 290 291 296 295 294 290 296 292 286 287 290 290 293 291 290 287 283 284 284 288
309 309 310 310 312 316 311 303 303 313 313 295 294 299 298 300 299 300 300 297 298 298 292 290 292 293 295 295 294 293 294 290 286 286 287 288 287 289 290 290 288 286 285 288
308 309 308 309 309 312 312 300 294 300 306 303 298 295 296 296 301 300 301 301 299 294 294 294 295 293 293 295 295 297 297 291 289 287 290 291 286 288 289 289 287 287 287 290
307 308 308 308 308 309 311 301 295 298 292 298 299 299 297 295 295 299 301 298 298 297 292 294 293 294 291 292 294 294 294 288 291 292 291 290 289 289 288 287 289 288 291 290
306 308 307 306 306 307 302 296 293 295 293 297 298 296 296 295 297 296 295 295 298 298 295 296 293 296 294 292 291 291 291 289 291 287 291 288 286 289 288 289 290 291 291 289
305 306 306 305 304 303 295 294 295 297 293 292 293 294 295 294 296 295 297 297 297 296 298 300 299 296 298 296 291 289 289 289 285 284 289 284 281 286 288 289 291 290 287 291
304 304 305 304 303 302 297 295 295 291 288 292 291 293 296 294 294 292 293 295 294 291 294 294 292 289 289 291 288 292 289 288 287 283 281 276 285 283 291 288 289 289 288 288
303 304 305 305 303 302 297 295 293 289 285 290 288 291 293 295 295 292 292 290 290 293 291 286 284 283 284 282 280 285 288 286 278 278 278 283 278 280 285 285 287 288 289 287
302 303 304 305 303 302 298 295 296 292 286 286 290 289 290 287 288 284 282 284 286 290 287 284 281 279 283 279 279 281 284 287 285 278 279 278 283 280 283 286 282 284 289 286
301 302 303 303 304 303 297 295 297 292 286 289 289 286 287 289 287 283 282 283 284 286 284 282 281 282 283 278 278 277 279 279 281 278 279 281 286 280 281 279 284 283 287 285
299 301 303 303 304 302 297 293 296 293 287 287 287 289 287 286 287 284 283 284 283 283 282 282 281 279 279 279 278 279 280 279 279 279 278 277 280 279 281 285 281 283 282 282
298 300 301 302 303 302 296 291 293 292 288 286 287 288 289 289 291 285 283 284 283 287 285 284 281 278 278 279 277 277 278 283 281 282 282 280 282 282 283 283 284 281 283 282
298 299 301 301 302 302 297 291 291 289 285 285 285 284 287 290 289 291 285 285 286 286 285 284 281 279 280 277 278 278 278 278 280 280 279 279 281 281 282 282 282 283 284 283
297 298 299 301 302 302 296 290 292 289 284 281 282 285 285 288 289 288 288 287 286 285 286 282 281 280 280 279 279 280 279 279 277 276 276 278 280 281 283 282 282 281 281 281
296 297 299 301 301 302 298 293 292 292 289 280 280 281 284 286 287 286 287 287 285 283 281 280 279 279 278 277 276 277 278 276 276 277 279 280 281 283 282 281 281 281 281 279
295 297 298 300 301 302 294 285 292 293 292 284 279 280 281 283 284 284 283 283 283 283 282 279 279 280 280 276 275 279 279 280 282 280 282 281 282 283 283 282 281 281 281 281
295 296 298 299 300 298 288 286 292 295 294 284 278 276 281 281 281 281 281 282 282 283 279 279 278 278 280 276 275 277 279 280 280 281 280 278 280 280 281 281 281 280 278 279
295 296 298 299 299 298 290 293 296 296 287 285 276 273 277 282 279 278 281 280 281 280 279 278 278 278 278 274 277 279 279 279 279 279 281 281 281 280 279 278 277 276 276 276
295 296 298 295 293 285 287 297 298 294 288 281 278 273 272 282 280 280 280 281 276 279 276 277 278 275 273 277 278 278 279 279 280 279 278 276 277 278 276 276 274 276 277 276
296 294 285 282 285 293 296 286 284 284 284 283 275 274 274 280 279 277 278 278 275 272 275 279 276 274 279 279 280 280 280 280 278 274 274 271 274 275 276 275 278 278 279 276
288 284 282 287 294 287 284 279 280 279 277 279 273 274 275 280 276 276 278 275 276 271 273 274 272 272 276 268 276 272 274 276 278 280 281 279 280 279 278 275 275 275 274 272
287 287 288 285 282 279 276 275 277 276 274 273 272 273 276 277 280 278 278 275 275 271 274 273 269 273 264 261 262 263 263 263 266 270 274 274 274 273 272 271 270 268 267 265
285 284 281 279 278 272 271 269 270 272 272 272 274 274 276 276 279 277 276 272 271 273 271 270 272 263 260 257 257 257 259 259 261 263 265 266 264 262 263 263 261 261 259 259
279 276 272 273 271 273 270 272 273 272 272 274 275 272 276 276 275 275 271 271 272 269 267 268 262 257 255 255 255 253 254 254 256 257 259 260 259 257 256 256 258 258 257 256
276 276 269 271 266 262 260 260 268 268 275 276 274 274 276 273 273 274 270 268 267 269 268 261 258 255 254 253 253 251 252 252 253 254 255 256 255 254 252 252 254 255 254 255
271 264 268 264 268 266 265 266 269 269 273 273 275 272 272 270 272 268 268 267 266 264 257 257 256 254 253 252 251 250 250 250 252 252 254 254 253 252 251 252 252 253 254 253
266 261 259 259 262 261 261 262 267 271 273 271 271 268 268 273 268 263 260 261 256 256 256 257 255 253 252 251 251 250 250 251 251 251 251 250 251 251 253 252 251 252 252 252

GFSNW_sfc_thetae_042.txt.gz
Theta_e
304 304 305 308 309 311 308 304 295 313 317 299 300 295 296 299 298 302 300 300 297 296 295 292 291 291 296 300 299 293 297 293 284 285 291 292 292 290 290 283 281 284 282 286
305 304 304 306 308 309 305 298 299 312 313 294 295 297 297 299 298 299 299 298 299 300 296 292 294 295 299 300 297 294 296 290 283 284 287 288 287 289 292 291 286 285 281 285
304 304 304 305 307 309 305 297 292 299 304 303 298 295 294 294 300 299 301 300 300 297 296 298 293 294 297 298 298 299 299 292 288 286 288 290 284 287 289 290 284 284 287 289
304 304 304 304 305 308 303 297 293 298 292 295 297 298 296 293 293 298 300 297 298 297 293 294 294 295 293 294 297 297 296 289 291 292 294 292 287 286 288 287 289 286 288 289
303 304 304 305 305 307 299 292 292 295 294 297 295 295 292 293 295 296 294 294 297 297 294 295 293 296 295 292 291 291 293 287 290 288 291 291 289 291 289 288 289 290 290 289
301 302 304 304 306 306 297 299 297 295 292 292 291 289 292 293 296 297 299 298 296 295 298 301 302 301 300 297 292 288 289 287 286 285 288 288 284 289 291 291 290 290 286 291
300 300 302 304 305 305 300 300 296 290 286 290 290 293 293 292 293 291 295 297 297 301 299 299 295 291 292 296 296 294 288 287 287 285 286 279 287 294 294 292 294 293 292 287
299 298 300 301 303 305 301 300 295 289 284 289 290 291 292 294 294 292 292 292 290 293 294 290 287 285 288 288 287 291 294 288 286 283 284 287 288 282 286 287 289 295 293 292
298 298 297 299 301 304 302 299 300 292 285 285 290 290 292 289 289 286 286 286 287 292 286 285 283 284 285 282 281 284 286 291 287 283 282 280 280 281 286 290 284 290 293 293
297 298 298 297 299 302 301 298 300 294 285 289 290 287 288 292 291 287 285 285 286 287 284 283 283 283 284 280 280 277 282 284 282 284 282 283 281 279 285 282 282 280 284 286
296 297 297 297 297 300 299 297 299 295 288 289 290 291 288 287 287 287 285 285 284 283 283 284 284 284 282 282 282 280 281 280 280 283 281 280 281 281 283 283 281 283 284 285
296 296 297 297 297 298 300 293 298 297 290 289 289 290 292 292 291 287 285 285 285 287 285 284 285 281 281 283 280 281 281 285 283 285 283 281 281 281 283 283 283 284 286 285
295 295 296 297 298 298 298 294 293 292 285 287 283 283 288 291 291 293 285 285 287 286 287 286 285 281 282 280 281 278 280 282 282 282 281 280 282 284 283 281 281 282 284 284
294 295 295 296 297 298 298 294 294 292 287 283 280 286 284 288 290 290 290 289 287 286 286 285 283 282 282 279 280 281 280 282 280 276 278 281 283 283 284 285 281 280 281 281
294 294 295 295 296 298 297 295 296 295 289 282 279 280 283 286 288 288 290 288 286 285 283 283 281 281 280 278 279 278 279 280 280 279 281 283 284 286 286 285 282 280 280 279
293 294 294 295 295 297 293 285 293 297 295 284 275 282 282 281 285 287 287 286 285 285 284 281 281 281 281 278 274 280 280 281 284 281 282 285 284 286 285 282 281 281 280 280
293 294 294 295 295 294 287 285 291 297 294 284 277 277 281 281 281 279 281 283 283 284 282 281 279 278 281 278 273 280 280 280 280 281 281 278 279 280 282 282 281 280 278 279
293 293 294 294 295 294 289 294 296 296 287 285 279 272 277 281 278 274 280 278 279 279 279 278 277 278 279 274 280 279 279 280 279 280 279 279 279 278 278 278 277 275 276 275
292 293 293 291 289 285 286 296 296 295 288 281 277 271 273 282 281 278 276 280 274 278 273 276 276 272 271 276 278 277 276 277 278 277 276 275 276 276 275 274 273 274 274 273
292 289 284 281 286 294 295 290 285 284 284 284 276 274 273 281 279 276 274 274 270 265 272 277 269 268 273 270 270 269 269 269 271 273 273 272 272 274 274 273 274 274 274 272
286 282 281 285 295 289 284 281 280 280 278 281 277 274 275 281 274 274 278 269 270 268 268 268 263 264 269 266 265 266 265 265 265 266 269 271 271 273 274 273 272 271 270 269
285 285 288 286 283 282 279 278 279 278 274 275 271 273 275 276 280 272 272 269 272 265 270 266 263 266 261 260 260 260 260 259 260 262 263 265 266 264 266 265 264 263 263 263
287 283 281 276 278 274 273 271 272 272 273 276 277 273 275 275 279 273 275 267 267 274 266 264 261 261 258 256 256 256 256 256 257 258 260 260 259 258 257 258 258 258 258 257
280 275 273 274 272 271 268 272 274 277 275 276 277 276 277 275 272 275 271 273 272 267 261 262 256 255 252 254 254 251 252 252 254 255 256 256 256 255 254 254 255 255 255 254
277 272 270 272 268 267 263 266 269 273 280 280 276 276 278 275 274 274 271 268 268 267 262 256 255 254 253 252 252 250 250 251 252 253 253 254 254 253 252 252 252 253 254 253
268 260 264 266 268 268 269 272 273 275 279 277 277 275 273 272 272 270 269 268 264 256 252 255 256 253 252 249 249 249 250 251 252 252 252 252 252 251 249 251 253 252 253 253
265 261 262 263 264 262 262 264 264 268 278 274 276 272 270 274 268 261 256 253 254 256 255 255 255 254 253 250 249 249 249 250 250 248 250 249 249 250 253 252 251 253 253 254

GFSNW_sfc_thetae_045.txt.gz
Theta_e
306 306 304 304 307 309 306 298 291 308 316 299 300 294 297 298 297 300 297 297 295 292 293 290 288 288 293 297 296 291 295 292 281 285 289 290 289 289 288 284 281 281 280 287
305 306 305 304 305 306 302 294 294 305 309 291 293 298 297 298 297 297 297 296 297 297 294 290 292 291 296 297 296 293 296 290 283 283 286 287 287 289 292 289 282 284 279 286
302 304 305 305 304 305 303 295 288 294 298 299 295 294 295 294 300 298 299 297 298 296 295 297 293 292 295 297 297 298 299 291 289 286 288 288 285 287 289 290 284 284 286 289
301 300 304 304 305 305 301 295 288 292 289 291 292 294 295 294 293 298 299 296 296 295 292 294 293 295 293 295 297 297 297 288 289 292 291 289 287 286 288 287 289 286 289 289
301 301 302 303 304 305 296 290 289 290 290 293 293 292 290 289 292 296 294 294 296 297 294 294 292 295 294 292 291 294 294 288 290 288 291 290 288 288 288 289 290 290 291 290
300 301 300 303 303 303 294 297 293 293 290 288 287 290 291 293 296 296 298 297 296 295 297 301 301 300 299 296 292 290 290 289 286 285 289 287 284 289 291 290 290 290 286 292
299 300 299 299 301 302 297 297 294 289 284 287 288 290 292 292 293 292 292 294 293 295 297 300 300 294 295 298 293 294 287 289 287 285 286 279 288 293 295 293 294 293 291 293
298 299 299 299 298 299 298 297 295 289 284 286 285 287 288 291 292 292 293 293 294 294 293 289 289 288 288 291 294 291 295 289 285 283 284 286 288 284 288 289 290 296 295 296
297 298 299 299 298 297 297 298 299 293 285 284 288 285 287 286 288 287 287 286 288 292 287 285 284 283 285 285 283 284 292 295 288 283 282 280 284 283 285 291 286 292 295 295
296 297 298 299 298 298 295 296 298 294 285 289 289 286 286 288 287 286 285 285 286 288 285 282 282 282 285 281 280 279 285 287 284 285 284 284 282 280 285 284 284 279 282 290
296 296 297 298 298 298 294 293 298 294 285 289 291 289 287 287 287 287 285 285 285 284 283 284 284 284 283 282 283 281 283 283 282 284 282 281 285 283 285 284 281 282 284 284
295 295 296 296 297 298 297 288 297 299 288 287 289 290 292 293 293 288 286 286 284 287 285 285 285 282 282 283 280 283 282 284 282 285 284 285 283 285 284 283 282 284 285 284
294 295 295 296 296 297 296 291 293 293 285 285 285 281 286 291 292 294 286 285 288 287 287 286 285 282 283 282 281 278 281 283 283 283 283 280 281 283 283 282 281 282 285 283
294 294 295 295 295 296 296 291 294 292 286 282 281 285 283 288 291 291 291 289 288 287 286 285 283 283 284 282 282 281 282 283 281 280 279 281 284 283 285 285 282 282 282 282
293 293 294 294 295 295 294 294 294 295 288 281 278 278 281 284 289 289 290 289 286 285 283 283 282 282 281 279 280 279 280 281 281 281 283 285 285 286 286 285 284 281 281 280
293 293 293 294 295 295 290 284 292 295 293 283 277 281 279 280 284 288 288 286 285 285 284 282 281 281 281 277 274 281 281 282 285 284 284 285 284 285 286 286 282 281 280 281
292 293 293 294 294 290 285 284 290 296 294 284 275 275 281 281 281 282 282 284 284 284 282 281 280 279 281 276 271 281 280 281 280 281 282 281 280 281 283 283 281 280 278 278
292 293 293 294 294 293 287 291 295 296 288 284 277 273 277 282 275 276 280 279 280 281 280 278 278 279 280 275 279 278 278 279 278 279 279 280 279 279 278 278 277 275 276 275
292 292 293 290 286 281 283 294 296 294 287 280 275 272 271 281 280 276 275 279 270 276 272 276 276 270 271 272 275 272 270 271 272 276 275 276 276 276 275 274 273 274 274 273
291 288 282 271 284 292 293 287 284 284 283 283 276 272 271 279 276 272 269 269 267 263 270 276 266 264 270 267 266 266 266 266 267 270 270 270 271 273 273 273 273 273 273 272
285 279 279 280 292 285 282 278 278 280 277 281 278 267 275 280 268 268 276 267 265 262 266 267 258 261 266 263 263 263 262 263 263 264 267 268 267 268 270 269 268 268 268 267
284 282 285 285 278 280 273 274 277 277 275 275 273 274 274 274 277 272 274 268 269 261 263 264 260 264 259 258 258 258 258 257 258 259 261 263 262 261 263 261 261 261 261 262
286 282 277 277 270 272 265 265 267 272 272 274 273 273 274 276 279 274 274 271 268 270 262 262 259 259 257 254 254 254 254 255 256 256 258 258 257 256 256 256 256 256 257 256
279 275 267 273 267 267 272 261 268 274 272 273 278 274 275 278 275 276 272 272 270 262 262 261 254 254 252 252 252 250 251 252 253 253 255 255 255 254 253 253 253 253 253 252
274 271 265 272 265 258 260 266 271 273 278 279 277 276 277 273 273 274 271 266 266 262 260 253 254 253 252 251 250 249 250 251 251 251 252 253 252 252 252 251 251 252 253 253
263 261 265 264 260 262 260 265 270 267 279 279 279 275 273 272 272 269 263 263 258 253 249 252 254 252 251 250 249 249 249 249 250 250 250 252 251 250 249 251 251 251 251 252
258 259 259 254 258 260 260 261 260 263 269 274 276 271 269 272 264 256 254 252 252 252 252 253 253 252 252 251 250 248 247 248 249 250 251 250 249 249 252 252 249 249 249 249

GFSNW_sfc_thetae_048.txt.gz
Theta_e
304 305 306 305 305 307 304 299 290 302 314 297 296 292 297 298 296 299 297 297 294 292 291 290 288 287 291 295 294 290 293 292 281 284 288 288 288 287 287 282 279 280 280 286
303 303 304 305 305 306 297 293 291 301 308 288 289 294 297 298 297 297 296 295 296 295 293 290 290 289 294 296 294 291 294 288 279 282 286 286 285 288 292 288 283 281 280 286
301 302 302 302 305 305 297 291 285 291 296 297 292 290 291 293 300 298 299 297 298 295 293 295 291 291 294 296 295 298 298 291 286 284 285 288 283 285 288 290 285 285 286 289
301 302 301 301 301 305 295 289 288 288 286 288 290 291 293 290 291 298 299 295 296 294 291 293 292 294 292 294 296 296 295 288 288 291 290 289 287 286 288 287 289 287 290 289
300 301 301 302 300 303 294 287 287 290 286 289 290 290 288 288 290 292 294 294 296 296 292 293 291 294 294 294 293 293 294 289 290 288 291 288 286 287 289 289 290 290 291 291
299 300 301 301 302 302 292 292 294 292 288 286 284 286 289 288 291 293 294 292 294 293 296 299 300 299 299 298 295 293 293 290 288 285 289 286 284 289 288 288 291 290 287 292
298 298 299 301 301 300 295 293 291 287 283 285 285 287 288 289 291 291 293 295 293 296 297 298 297 296 297 298 295 296 288 290 289 286 286 280 290 295 295 292 292 292 291 293
298 298 298 300 300 300 294 293 292 287 282 286 285 286 288 289 291 291 290 293 294 296 294 287 286 286 287 291 293 293 295 290 286 283 284 287 288 286 288 289 291 296 294 295
297 297 297 298 299 300 296 293 293 290 283 283 288 284 285 284 284 284 287 286 288 292 288 285 282 280 284 285 286 292 294 294 287 283 281 280 286 286 290 292 287 294 295 296
297 297 297 297 298 299 296 291 294 289 284 288 287 285 282 285 282 277 284 285 287 288 285 283 281 281 286 283 281 280 286 288 284 284 284 286 283 281 287 285 286 278 282 285
297 296 296 297 297 298 297 290 293 288 285 288 290 290 285 286 284 281 279 286 285 285 284 284 283 283 283 283 283 282 284 285 285 286 283 281 285 283 287 286 281 283 283 285
296 296 296 296 296 297 297 287 293 294 286 286 289 291 290 292 291 288 285 284 281 287 286 285 284 284 283 284 281 284 282 287 284 285 285 286 285 286 285 284 285 286 286 285
296 296 296 296 296 296 296 291 291 290 284 285 285 286 289 290 291 293 286 286 289 287 289 287 286 283 282 281 282 279 283 284 285 285 285 283 282 283 283 282 283 283 285 284
295 295 295 295 295 295 295 290 292 289 285 281 282 286 286 288 290 290 292 290 288 288 287 285 284 283 285 280 281 283 283 285 283 282 283 282 285 283 284 283 281 281 282 283
295 294 294 294 294 295 292 290 293 293 285 280 280 282 284 285 287 287 289 290 286 285 283 283 282 281 280 276 281 280 281 282 283 282 285 287 286 286 285 285 283 282 282 281
294 294 294 294 294 294 288 280 289 293 292 282 275 280 279 283 286 288 288 288 286 285 284 283 283 282 282 279 279 284 283 283 286 285 285 285 283 285 285 286 283 282 281 281
293 293 293 293 293 288 284 278 285 294 293 283 277 270 281 282 284 283 283 285 284 284 283 281 280 280 282 280 276 279 280 281 279 281 283 283 281 281 284 283 282 280 278 278
292 293 293 293 293 292 286 289 293 295 287 284 277 273 277 282 279 279 282 281 282 281 281 277 278 279 280 276 279 275 274 278 278 277 278 279 279 279 278 278 277 278 277 276
292 292 292 290 287 282 281 293 293 292 285 279 274 272 271 281 280 279 279 280 276 277 271 276 276 274 275 273 273 270 267 268 269 271 275 276 275 275 275 274 273 274 274 273
292 288 283 279 281 290 291 283 279 282 283 281 276 270 267 279 277 275 273 273 272 268 270 275 270 264 268 265 264 264 264 264 265 269 271 270 270 272 272 271 271 272 272 270
285 278 278 281 289 282 278 274 273 270 275 280 274 274 275 280 271 270 276 269 265 266 267 268 261 262 266 263 261 261 261 262 262 263 266 267 266 268 269 267 266 266 266 264
283 281 284 283 273 270 275 269 267 270 269 276 271 273 279 279 278 275 272 269 266 265 261 263 262 264 258 257 257 258 257 256 257 259 260 261 261 261 261 260 260 259 260 260
285 282 277 275 268 268 269 265 266 267 271 271 271 274 276 279 279 276 274 271 268 269 265 263 259 258 256 254 254 254 254 255 255 256 257 257 256 256 255 256 256 256 256 255
277 272 266 269 264 265 264 266 263 268 269 268 279 274 276 278 276 276 270 272 272 264 264 262 253 253 252 252 251 249 251 252 254 253 254 254 254 253 253 252 252 253 253 252
274 274 264 262 261 265 258 262 268 269 274 279 276 277 278 275 274 274 271 267 266 263 261 251 253 252 252 251 250 249 250 251 251 250 251 252 252 252 252 251 251 252 252 252
267 261 262 254 258 259 262 260 264 264 263 280 279 275 273 271 272 269 263 266 261 254 247 251 252 251 251 250 250 250 251 250 250 249 249 251 251 250 248 250 251 251 251 251
262 257 250 249 254 255 256 256 257 260 259 274 276 271 269 269 259 253 252 248 249 249 250 252 252 251 250 250 251 251 251 251 250 249 250 248 247 249 252 251 248 249 249 250